Tracking 19817 objects as of 19-Aug-2019
HD Live streaming from Space Station
objects crossing your sky now

VCC C

Track VCC C now!
10-day predictions


NORAD ID: 44430
Int'l Code: 1998-067QQ
Perigee: 415.8 km
Apogee: 419.5 km
Inclination: 51.6 °
Period: 92.8 minutes
Semi major axis: 6788 km
RCS: Unknown
Launch date: November 20, 1998
Source: United States (US)
Launch site: TYURATAM MISSILE AND SPACE COMPLEX (TTMTR)
aabbcc
Your satellite tracking list
Your tracking list is empty




NASA's NSSDC Master Catalog

Two Line Element Set (TLE):
1 44430U 98067QQ  19228.83577076  .00005434  00000-0  95758-4 0  9994
2 44430  51.6427  60.0693 0002764 281.7756  78.2924 15.52132942  5787
Source of the keplerian elements: AFSPC